Location: Newark
(44.2886°N, 4.8431°E)
Time: 15:01:11
(UTC+00:00)

ZACube-1 - Pass Details

Date: 04 December 2020
Orbit: 584 x 665 km, 97.6° (Epoch: 14 January)

Event Time Altitude Azimuth Distance (km) Brightness Sun altitude
Rises 04:54:08 0° 14° (NNE) 2,834 ? -21.8°
Reaches altitude 10° 04:56:17 10° 16° (NNE) 1,935 ? -21.4°
Maximum altitude 05:00:29 75° 102° (ESE) 626 ? -20.6°
Drops below altitude 10° 05:04:44 10° 188° (S) 1,959 ? -19.9°
Sets 05:06:56 0° 190° (S) 2,872 ? -19.5°
